[[{"header":{"parameterUnit":"m.s-1","parameterCategory":1,"la1":30.2991,"la2":30.254,"lo1":-89.0895,"lo2":-89.0444,"dy":0.0017,"dx":0.0017,"nx":28,"ny":28,"refTime":"2025-06-08T09:00:00:Z","depth":0,"parameterNumber":2,"parameterNumberName":"U-component_of_WINDS"},"data":[0,0,0,0,0,0,0,0,0,0,0,0,0,0,0,0,0,0,0,0,0,0,0,0,0,0,0,0,0,0,0,0,0,0,0,0,0,0,0,0,0,0,0,0,0,0,0,0,0,0,0,0,0,0,0,0,0,0,4.7821,4.7822,0,4.7985,4.7987,4.7989,4.796,4.7958,4.7955,4.7952,4.8121,4.8128,4.8135,0,0,0,0,0,0,0,0,0,0,0,0,0,4.748,4.7486,4.782,4.7822,4.7825,4.7985,4.7987,4.7989,4.7961,4.7957,4.7954,4.7951,4.8119,4.8127,4.8136,0,0,0,0,0,0,0,0,0,0,0,0,0,4.7634,4.7488,4.782,4.783,4.7832,4.7984,4.7987,4.799,4.7962,4.7957,4.7953,4.7949,4.8116,4.8126,4.8137,4.829,0,0,4.817,4.8175,0,0,0,0,0,0,0,0,4.7626,4.7647,4.7826,4.7829,4.7832,4.7948,4.7929,4.809,4.7963,4.7913,4.7952,4.7947,4.8067,4.8082,4.8122,4.8298,4.8305,4.8171,4.8178,4.8182,4.8185,0,0,0,0,0,0,0,4.7615,4.764,4.7885,4.7829,4.7833,4.7825,4.7842,4.7959,4.8012,4.7917,4.7915,4.7935,4.8068,4.8112,4.8126,4.8308,4.8171,4.818,4.8187,4.8191,4.8612,4.8617,0,0,0,0,0,0,4.7601,4.7631,4.788,4.789,4.7716,4.7835,4.7854,4.7915,4.8011,4.8021,4.7938,4.7933,4.8095,4.8113,4.8132,4.8313,4.8182,4.8192,4.8198,4.8608,4.8613,4.8618,0,0,0,0,0,0,4.7594,4.7624,4.7874,4.776,4.7791,4.7845,4.7914,4.7921,4.7964,4.8027,4.8036,4.7973,4.8093,4.8116,4.825,4.8318,4.8197,4.8207,4.8602,4.8609,4.8616,4.8679,0,0,0,0,0,0,4.7585,4.7622,4.7681,4.7762,4.7798,4.799,4.7918,4.7927,4.7983,4.7977,4.8062,4.8072,4.8091,4.8234,4.826,4.8331,4.8215,4.8596,4.8605,4.8614,4.8671,4.8687,4.8701,0,0,0,0,0,4.7573,4.7693,4.7684,4.7714,4.7873,4.7994,4.8014,4.8033,4.7989,4.8048,4.8087,4.807,4.8307,4.8248,4.8277,4.8352,4.8592,4.8603,4.8613,4.8664,4.8684,4.8701,0,0,0,0,0,0,4.762,4.7704,4.7695,4.7846,4.7913,4.7989,4.8064,4.8054,4.8136,4.8127,4.8147,4.8167,4.8301,4.8341,4.8273,4.8503,4.8443,4.846,4.8472,4.8491,4.8506,4.8492,4.8224,0,0,0,0,0,4.7648,4.774,4.7808,4.7934,4.7968,4.8011,4.8064,4.8072,4.8143,4.8171,4.8221,4.829,4.8379,4.8438,4.8524,4.8677,4.8693,4.8743,4.8758,4.8771,4.8784,4.8863,4.8885,4.8653,4.8653,4.8653,0,0,4.7707,4.7764,4.7821,4.7945,4.7998,4.8091,4.8035,4.8137,4.8205,4.8187,4.8314,4.8353,4.8431,4.8573,4.8639,4.861,4.8852,4.8784,4.8793,4.8801,4.8876,4.8898,4.8918,4.866,4.8659,4.8658,0,0,4.7861,4.7915,4.8024,4.8077,4.8157,4.8184,4.821,4.8288,4.8312,4.844,4.8427,4.8509,4.8664,4.8719,4.8767,4.8938,4.8923,4.8966,4.9044,4.9121,4.9139,4.9155,4.9212,4.9233,4.898,4.898,4.898,0,4.7923,4.8063,4.8081,4.8183,4.8236,4.8223,4.8332,4.8383,4.8488,4.8525,4.8492,4.8683,4.8735,4.8888,4.8929,4.897,4.8998,4.8955,4.9135,4.9152,4.9167,4.9221,4.9243,4.8984,4.8984,4.8983,4.8983,0,4.8134,4.8231,4.8309,4.8408,4.8471,4.8576,4.8608,4.867,4.8672,4.8702,4.8831,4.8892,4.8989,4.9026,4.9031,4.9179,4.9158,4.9131,4.907,4.9193,4.9244,4.9266,4.899,4.8989,4.8988,4.8987,0,0,4.8322,4.8428,4.8456,4.8499,4.8585,4.866,4.8763,4.8857,4.8907,4.8979,4.9064,4.9194,4.9168,4.9222,4.9233,4.9301,4.9427,4.9264,4.9266,4.9289,4.9588,4.9606,4.963,4.9418,4.9423,4.9426,4.958,0,4.8481,4.8662,4.868,4.8842,4.8929,4.8917,4.9007,4.9068,4.9099,4.9176,4.921,4.93,4.9261,4.9292,4.936,4.9397,4.9486,4.9387,4.9495,4.9499,4.9472,4.9657,4.9677,4.982,4.9601,4.9604,4.9607,0,4.869,4.8766,4.8936,4.9006,4.9043,4.9124,4.9208,4.9284,4.9352,4.9369,4.9429,4.9429,4.9533,4.9471,4.9613,4.9545,4.959,4.9615,4.9621,4.9629,4.9558,4.9667,4.9867,4.9886,4.9639,4.9637,4.9634,0,4.8804,4.895,4.9069,4.9107,4.9193,4.9249,4.9287,4.9352,4.9405,4.948,4.9514,4.96,4.9647,4.9713,4.9736,4.9689,4.9875,4.9816,4.989,4.9889,4.9927,4.9924,5.0133,4.9963,4.9963,4.9962,4.9962,0,4.8977,4.9081,4.9121,4.9194,4.9308,4.9328,4.9441,4.9476,4.9533,4.9612,4.9608,4.9682,4.9709,4.9787,4.9806,4.9918,4.994,4.9955,4.9958,4.9953,4.9951,4.9981,4.997,4.9968,4.9967,4.9966,4.9965,0,4.9124,4.9155,4.9283,4.9354,4.9374,4.9455,4.9514,4.9584,4.9612,4.9711,4.9736,4.978,4.9871,4.9901,5.0012,5.0024,5.0154,5.0151,5.013,5.0129,5.02,5.0191,5.0433,5.0464,5.0277,5.0279,5.028,0,4.923,4.9309,4.9387,4.9438,4.9478,4.9563,4.9616,4.9638,4.9694,4.9776,4.9835,4.9925,4.9998,5.0143,5.0185,5.0269,5.0265,5.0344,5.0277,5.0268,5.0261,5.0254,5.026,5.0355,5.0357,5.0359,5.036,0,4.9414,4.9425,4.9503,4.9585,4.9649,4.9715,4.9779,4.9822,4.9852,4.9915,5.0007,5.0064,5.0175,5.0263,5.0348,5.0386,5.0377,5.0381,5.0401,5.0395,5.0378,5.0384,5.0159,5.0375,5.0373,5.0372,5.0371,5.0371,4.9541,4.9609,4.9673,4.9758,4.9808,4.9867,4.9934,4.997,5.0047,5.0139,5.0147,5.0245,5.0309,5.0422,5.0464,5.054,5.0518,5.0549,5.0556,5.0563,5.0566,5.0369,5.0557,5.0556,5.0556,5.0556,5.0555,0,4.9721,4.9761,4.984,4.9928,4.9994,4.998,5.005,5.0106,5.0192,5.0252,5.0323,5.0427,5.0511,5.0559,5.0643,5.0694,5.0692,5.0715,5.071,5.0718,5.0584,5.0555,5.0715,5.0715,5.0715,5.0715,5.0715,5.0715,4.9822,4.9934,4.9952,5.0088,5.0128,5.0223,5.0263,5.0316,5.0364,5.048,5.0549,5.058,5.0634,5.0721,5.0797,5.0809,5.0838,5.0863,5.0872,5.0745,5.0728,5.0712,5.0685,5.0871,5.0871,5.1,5.1001,5.1002]},{"header":{"parameterUnit":"m.s-1","parameterCategory":1,"la1":30.2991,"la2":30.254,"lo1":-89.0895,"lo2":-89.0444,"dy":0.0017,"dx":0.0017,"nx":28,"ny":28,"refTime":"2025-06-08T09:00:00:Z","depth":0,"parameterNumber":3,"parameterNumberName":"V-component_of_WINDS"},"data":[0,0,0,0,0,0,0,0,0,0,0,0,0,0,0,0,0,0,0,0,0,0,0,0,0,0,0,0,0,0,0,0,0,0,0,0,0,0,0,0,0,0,0,0,0,0,0,0,0,0,0,0,0,0,0,0,0,0,3.4324,3.4325,0,3.4399,3.44,3.4401,3.4365,3.4363,3.4361,3.436,3.4435,3.4438,3.4442,0,0,0,0,0,0,0,0,0,0,0,0,0,3.4146,3.4149,3.4324,3.4325,3.4326,3.4399,3.44,3.4401,3.4366,3.4363,3.4361,3.4359,3.4433,3.4438,3.4442,0,0,0,0,0,0,0,0,0,0,0,0,0,3.4222,3.415,3.4324,3.4317,3.4317,3.4399,3.44,3.4402,3.4366,3.4363,3.436,3.4358,3.4432,3.4438,3.4443,3.4535,0,0,3.446,3.4463,0,0,0,0,0,0,0,0,3.4218,3.4229,3.4317,3.4318,3.4318,3.437,3.4365,3.4446,3.4367,3.4347,3.436,3.4356,3.4415,3.4422,3.4443,3.4539,3.4542,3.4461,3.4464,3.4467,3.4468,0,0,0,0,0,0,0,3.4213,3.4225,3.4354,3.4318,3.4319,3.4309,3.4317,3.438,3.4396,3.4349,3.4347,3.4356,3.4415,3.4437,3.4444,3.4543,3.4461,3.4466,3.4469,3.4472,3.4717,3.472,0,0,0,0,0,0,3.4208,3.4221,3.4351,3.4356,3.426,3.4315,3.4323,3.4356,3.4396,3.4399,3.4358,3.4354,3.4429,3.4438,3.4447,3.4556,3.4467,3.4472,3.4475,3.4714,3.4717,3.4721,0,0,0,0,0,0,3.4204,3.422,3.4348,3.4288,3.4304,3.4321,3.4358,3.4359,3.4381,3.4403,3.4405,3.4378,3.4427,3.4439,3.4513,3.4558,3.4475,3.448,3.471,3.4715,3.4719,3.4776,0,0,0,0,0,0,3.4199,3.4219,3.4255,3.4289,3.4307,3.4415,3.4361,3.4363,3.4391,3.4387,3.4422,3.4425,3.4426,3.4505,3.4519,3.4564,3.4484,3.4706,3.4712,3.4718,3.477,3.4782,3.4792,0,0,0,0,0,3.4193,3.4268,3.4257,3.4273,3.4353,3.4418,3.4428,3.4427,3.4395,3.4431,3.4444,3.4424,3.4551,3.4513,3.4528,3.4576,3.4703,3.471,3.4717,3.4765,3.478,3.4792,0,0,0,0,0,0,3.4239,3.4273,3.4261,3.4349,3.4381,3.4412,3.4457,3.4443,3.4484,3.4477,3.4474,3.4482,3.4559,3.4575,3.4532,3.4666,3.4622,3.4632,3.4653,3.4667,3.4678,3.4672,3.4489,0,0,0,0,0,3.4259,3.431,3.4337,3.4412,3.4428,3.444,3.4468,3.4465,3.4497,3.451,3.4529,3.4561,3.4607,3.4638,3.4682,3.4772,3.4778,3.4812,3.4823,3.4832,3.4841,3.4888,3.4903,3.4744,3.4744,3.4743,0,0,3.4302,3.4327,3.4359,3.4422,3.4446,3.4497,3.4452,3.4508,3.4546,3.4519,3.459,3.4605,3.464,3.4722,3.4759,3.4737,3.4886,3.4841,3.4848,3.4852,3.4897,3.4912,3.4925,3.4748,3.4748,3.4747,0,0,3.4406,3.443,3.4495,3.452,3.4557,3.4564,3.4579,3.4612,3.4621,3.4693,3.4673,3.4717,3.4798,3.4823,3.4846,3.4957,3.4939,3.4971,3.5029,3.5074,3.5087,3.5098,3.5136,3.515,3.498,3.498,3.4981,0,3.4454,3.4532,3.453,3.4588,3.4615,3.4593,3.4657,3.4681,3.4731,3.475,3.4725,3.4825,3.4847,3.4933,3.496,3.498,3.4997,3.4967,3.5085,3.5096,3.5107,3.5143,3.5157,3.4984,3.4984,3.4983,3.4983,0,3.4588,3.4642,3.4689,3.4738,3.4771,3.4832,3.4838,3.4871,3.4864,3.4873,3.4945,3.4971,3.5019,3.5039,3.5033,3.5125,3.511,3.5085,3.5041,3.5125,3.5159,3.5173,3.4989,3.4988,3.4987,3.4986,0,0,3.4723,3.4769,3.4786,3.4807,3.4846,3.4887,3.4946,3.4993,3.5021,3.5055,3.5104,3.5172,3.5149,3.5175,3.5172,3.5212,3.5296,3.5182,3.5183,3.5201,3.5396,3.5414,3.543,3.5285,3.5287,3.5289,3.5393,0,3.4829,3.4933,3.4933,3.5028,3.5077,3.5056,3.5107,3.5135,3.5145,3.5187,3.5197,3.5245,3.5212,3.5227,3.5266,3.5278,3.5335,3.527,3.5328,3.533,3.532,3.5448,3.5467,3.5564,3.5406,3.5409,3.541,0,3.4966,3.5005,3.5106,3.5135,3.5156,3.5202,3.5244,3.5285,3.5316,3.532,3.5349,3.5338,3.5397,3.5351,3.543,3.5386,3.5409,3.5418,3.5422,3.5427,3.5375,3.5455,3.5595,3.5609,3.5431,3.543,3.5428,0,3.5053,3.513,3.52,3.5219,3.5256,3.5288,3.5305,3.5333,3.5361,3.5398,3.5415,3.5458,3.5481,3.5514,3.5515,3.5482,3.5595,3.5549,3.5598,3.5598,3.5623,3.5621,3.5767,3.5639,3.5639,3.5639,3.5639,0,3.517,3.5232,3.524,3.5283,3.5351,3.5349,3.5416,3.5429,3.5454,3.5498,3.5482,3.5524,3.5523,3.5565,3.5566,3.563,3.5641,3.5645,3.5644,3.5646,3.5645,3.5661,3.5654,3.5643,3.5642,3.5641,3.564,0,3.5279,3.5286,3.5361,3.5389,3.5398,3.5447,3.547,3.551,3.5518,3.5574,3.5586,3.5598,3.5646,3.5651,3.5706,3.5707,3.5784,3.5777,3.5774,3.5773,3.5821,3.5816,3.5981,3.6002,3.5862,3.5864,3.5865,0,3.5353,3.54,3.5433,3.5462,3.548,3.5527,3.5555,3.5554,3.5584,3.5622,3.5657,3.5703,3.574,3.5818,3.5831,3.5872,3.5865,3.592,3.5871,3.5871,3.5864,3.5861,3.5865,3.5929,3.5931,3.5932,3.5933,0,3.5483,3.5484,3.5526,3.5569,3.5603,3.5636,3.5667,3.5691,3.5694,3.5728,3.5777,3.5806,3.5862,3.5908,3.5949,3.5964,3.5949,3.5948,3.5962,3.5964,3.5959,3.5961,3.5799,3.5945,3.5943,3.5943,3.5942,3.5942,3.5576,3.5616,3.5645,3.5692,3.5715,3.5744,3.5783,3.5795,3.5836,3.5883,3.5879,3.5933,3.5961,3.6014,3.6032,3.6073,3.6055,3.6075,3.6079,3.6084,3.6088,3.5954,3.6081,3.6081,3.608,3.608,3.608,0,3.5703,3.5721,3.5764,3.5808,3.5844,3.5827,3.586,3.5891,3.5939,3.5966,3.6003,3.6058,3.6102,3.6118,3.6161,3.619,3.6184,3.6201,3.6198,3.6202,3.6103,3.6087,3.6205,3.6205,3.6205,3.6205,3.6205,3.6205,3.5774,3.5841,3.5845,3.5923,3.5939,3.5993,3.6013,3.6039,3.6061,3.6123,3.616,3.617,3.6192,3.6236,3.6275,3.6278,3.6294,3.6314,3.6314,3.6222,3.6209,3.6197,3.6181,3.6318,3.6318,3.6409,3.641,3.641]}]]